Time,TemperatureF,DewpointF,PressureIn,WindDirection,WindDirectionDegrees,WindSpeedMPH,WindSpeedGustMPH,Humidity,HourlyPrecipIn,Conditions,Clouds,dailyrainin,SoftwareType,DateUTC
2013-02-28 00:12:00,42.8,15.7,30.07,SE,135,6.3,-999.0,33,-99.99,,,0.00,Acu-Link.com,2013-02-28 07:12:00,
2013-02-28 00:27:00,42.3,15.3,30.07,ESE,112,6.8,-999.0,33,-99.99,,,0.00,Acu-Link.com,2013-02-28 07:27:00,
2013-02-28 00:42:00,42.6,15.5,30.08,SE,135,5.8,-999.0,33,-99.99,,,0.00,Acu-Link.com,2013-02-28 07:42:00,
2013-02-28 00:57:00,42.3,15.3,30.07,SE,135,8.3,-999.0,33,-99.99,,,0.00,Acu-Link.com,2013-02-28 07:57:00,
2013-02-28 01:13:00,42.3,15.3,30.07,SE,135,6.3,-999.0,33,-99.99,,,0.00,Acu-Link.com,2013-02-28 08:13:00,
2013-02-28 01:28:00,42.1,15.1,30.07,SE,135,5.3,-999.0,33,-99.99,,,0.00,Acu-Link.com,2013-02-28 08:28:00,
2013-02-28 01:43:00,41.4,15.2,30.07,SE,135,4.7,-999.0,34,-99.99,,,0.00,Acu-Link.com,2013-02-28 08:43:00,
2013-02-28 01:58:00,41.4,15.2,30.06,ESE,112,3.7,-999.0,34,-99.99,,,0.00,Acu-Link.com,2013-02-28 08:58:00,
2013-02-28 02:18:00,41.2,15.0,30.06,ESE,112,4.7,-999.0,34,-99.99,,,0.00,Acu-Link.com,2013-02-28 09:18:00,
2013-02-28 02:34:00,41.5,15.3,30.06,SSE,157,6.3,-999.0,34,-99.99,,,0.00,Acu-Link.com,2013-02-28 09:34:00,
2013-02-28 02:49:00,40.8,15.3,30.05,SSE,157,3.2,-999.0,35,-99.99,,,0.00,Acu-Link.com,2013-02-28 09:49:00,
2013-02-28 03:04:00,39.4,15.3,30.04,South,180,2.2,-999.0,37,-99.99,,,0.00,Acu-Link.com,2013-02-28 10:04:00,
2013-02-28 03:19:00,39.0,15.0,30.04,SSW,202,2.7,-999.0,37,-99.99,,,0.00,Acu-Link.com,2013-02-28 10:19:00,
2013-02-28 03:34:00,38.3,14.9,30.05,SW,225,3.2,-999.0,38,-99.99,,,0.00,Acu-Link.com,2013-02-28 10:34:00,
2013-02-28 03:49:00,38.7,14.7,30.06,SSE,157,2.7,-999.0,37,-99.99,,,0.00,Acu-Link.com,2013-02-28 10:49:00,
2013-02-28 04:04:00,39.2,15.1,30.05,SSE,157,3.7,-999.0,37,-99.99,,,0.00,Acu-Link.com,2013-02-28 11:04:00,
2013-02-28 04:19:00,38.8,14.8,30.05,SSE,157,3.2,-999.0,37,-99.99,,,0.00,Acu-Link.com,2013-02-28 11:19:00,
2013-02-28 04:35:00,35.8,13.3,30.06,WNW,292,2.7,-999.0,39,-99.99,,,0.00,Acu-Link.com,2013-02-28 11:35:00,
2013-02-28 04:50:00,33.4,12.3,30.06,ENE,67,4.2,-999.0,41,-99.99,,,0.00,Acu-Link.com,2013-02-28 11:50:00,
2013-02-28 05:05:00,31.8,12.4,30.07,NW,315,0.0,-999.0,44,-99.99,,,0.00,Acu-Link.com,2013-02-28 12:05:00,
2013-02-28 05:20:00,30.6,12.8,30.07,NNW,337,0.0,-999.0,47,-99.99,,,0.00,Acu-Link.com,2013-02-28 12:20:00,
2013-02-28 05:35:00,29.8,12.5,30.08,WSW,247,0.0,-999.0,48,-99.99,,,0.00,Acu-Link.com,2013-02-28 12:35:00,
2013-02-28 05:50:00,28.9,12.2,30.08,NNE,22,1.1,-999.0,49,-99.99,,,0.00,Acu-Link.com,2013-02-28 12:50:00,
2013-02-28 06:05:00,28.2,12.9,30.08,West,270,0.0,-999.0,52,-99.99,,,0.00,Acu-Link.com,2013-02-28 13:05:00,
2013-02-28 06:20:00,28.4,12.6,30.07,North,0,2.2,-999.0,51,-99.99,,,0.00,Acu-Link.com,2013-02-28 13:20:00,
2013-02-28 06:35:00,28.0,12.2,30.10,West,270,2.2,-999.0,51,-99.99,,,0.00,Acu-Link.com,2013-02-28 13:35:00,
2013-02-28 06:51:00,27.9,12.1,30.10,SSW,202,0.0,-999.0,51,-99.99,,,0.00,Acu-Link.com,2013-02-28 13:51:00,
2013-02-28 07:06:00,30.0,11.8,30.11,WNW,292,3.2,-999.0,46,-99.99,,,0.00,Acu-Link.com,2013-02-28 14:06:00,
2013-02-28 07:21:00,32.2,11.7,30.12,WSW,247,1.1,-999.0,42,-99.99,,,0.00,Acu-Link.com,2013-02-28 14:21:00,
2013-02-28 07:36:00,33.4,11.1,30.13,NW,315,2.7,-999.0,39,-99.99,,,0.00,Acu-Link.com,2013-02-28 14:36:00,
2013-02-28 07:51:00,36.0,11.7,30.14,NW,315,4.2,-999.0,36,-99.99,,,0.00,Acu-Link.com,2013-02-28 14:51:00,
2013-02-28 08:06:00,35.4,11.7,30.15,North,0,3.2,-999.0,37,-99.99,,,0.00,Acu-Link.com,2013-02-28 15:06:00,
2013-02-28 08:21:00,36.5,12.1,30.17,NW,315,3.2,-999.0,36,-99.99,,,0.00,Acu-Link.com,2013-02-28 15:21:00,
2013-02-28 08:36:00,38.3,13.1,30.17,NNW,337,1.7,-999.0,35,-99.99,,,0.00,Acu-Link.com,2013-02-28 15:36:00,
2013-02-28 08:51:00,40.3,14.2,30.17,WNW,292,1.7,-999.0,34,-99.99,,,0.00,Acu-Link.com,2013-02-28 15:51:00,
2013-02-28 09:07:00,42.1,14.4,30.17,NW,315,3.7,-999.0,32,-99.99,,,0.00,Acu-Link.com,2013-02-28 16:07:00,
2013-02-28 09:22:00,43.5,14.9,30.17,SSW,202,0.0,-999.0,31,-99.99,,,0.00,Acu-Link.com,2013-02-28 16:22:00,
2013-02-28 09:37:00,45.7,16.1,30.17,NNW,337,3.2,-999.0,30,-99.99,,,0.00,Acu-Link.com,2013-02-28 16:37:00,
2013-02-28 09:52:00,48.4,16.0,30.17,NNW,337,4.2,-999.0,27,-99.99,,,0.00,Acu-Link.com,2013-02-28 16:52:00,
2013-02-28 10:07:00,48.7,16.2,30.17,WNW,292,1.1,-999.0,27,-99.99,,,0.00,Acu-Link.com,2013-02-28 17:07:00,
2013-02-28 10:22:00,51.1,16.5,30.17,NW,315,4.7,-999.0,25,-99.99,,,0.00,Acu-Link.com,2013-02-28 17:22:00,
2013-02-28 10:37:00,52.7,16.9,30.17,SE,135,4.2,-999.0,24,-99.99,,,0.00,Acu-Link.com,2013-02-28 17:37:00,
2013-02-28 10:52:00,53.4,16.6,30.17,SSE,157,3.2,-999.0,23,-99.99,,,0.00,Acu-Link.com,2013-02-28 17:52:00,
2013-02-28 11:07:00,54.3,17.3,30.16,SSE,157,4.2,-999.0,23,-99.99,,,0.00,Acu-Link.com,2013-02-28 18:07:00,
2013-02-28 11:23:00,54.1,18.1,30.16,WSW,247,1.1,-999.0,24,-99.99,,,0.00,Acu-Link.com,2013-02-28 18:23:00,
2013-02-28 11:38:00,54.9,17.8,30.15,WSW,247,2.2,-999.0,23,-99.99,,,0.00,Acu-Link.com,2013-02-28 18:38:00,
2013-02-28 11:53:00,57.9,18.2,30.14,ESE,112,5.3,-999.0,21,-99.99,,,0.00,Acu-Link.com,2013-02-28 18:53:00,
2013-02-28 12:08:00,57.2,17.6,30.14,SSE,157,1.7,-999.0,21,-99.99,,,0.00,Acu-Link.com,2013-02-28 19:08:00,
2013-02-28 12:23:00,57.6,16.8,30.13,NE,45,4.7,-999.0,20,-99.99,,,0.00,Acu-Link.com,2013-02-28 19:23:00,
2013-02-28 12:38:00,58.8,16.6,30.12,WNW,292,1.1,-999.0,19,-99.99,,,0.00,Acu-Link.com,2013-02-28 19:38:00,
2013-02-28 12:53:00,59.7,17.4,30.11,SSE,157,4.7,-999.0,19,-99.99,,,0.00,Acu-Link.com,2013-02-28 19:53:00,
2013-02-28 13:08:00,58.6,16.5,30.11,ESE,112,2.7,-999.0,19,-99.99,,,0.00,Acu-Link.com,2013-02-28 20:08:00,
2013-02-28 13:23:00,61.2,17.4,30.11,WSW,247,4.7,-999.0,18,-99.99,,,0.00,Acu-Link.com,2013-02-28 20:23:00,
2013-02-28 13:39:00,59.0,14.3,30.09,WSW,247,2.2,-999.0,17,-99.99,,,0.00,Acu-Link.com,2013-02-28 20:39:00,
2013-02-28 13:54:00,62.4,14.2,30.09,WSW,247,5.3,-999.0,15,-99.99,,,0.00,Acu-Link.com,2013-02-28 20:54:00,
2013-02-28 14:09:00,61.2,13.2,30.09,West,270,3.2,-999.0,15,-99.99,,,0.00,Acu-Link.com,2013-02-28 21:09:00,
2013-02-28 14:24:00,60.1,13.8,30.08,NNW,337,5.3,-999.0,16,-99.99,,,0.00,Acu-Link.com,2013-02-28 21:24:00,
2013-02-28 14:39:00,61.3,13.3,30.08,North,0,5.8,-999.0,15,-99.99,,,0.00,Acu-Link.com,2013-02-28 21:39:00,
2013-02-28 14:54:00,62.4,12.6,30.08,NW,315,5.3,-999.0,14,-99.99,,,0.00,Acu-Link.com,2013-02-28 21:54:00,
2013-02-28 15:09:00,61.0,13.0,30.09,WSW,247,3.7,-999.0,15,-99.99,,,0.00,Acu-Link.com,2013-02-28 22:09:00,
2013-02-28 15:24:00,60.1,12.3,30.08,SW,225,4.2,-999.0,15,-99.99,,,0.00,Acu-Link.com,2013-02-28 22:24:00,
2013-02-28 15:39:00,60.6,12.7,30.08,WNW,292,4.7,-999.0,15,-99.99,,,0.00,Acu-Link.com,2013-02-28 22:39:00,
2013-02-28 15:55:00,60.4,11.0,30.09,North,0,1.1,-999.0,14,-99.99,,,0.00,Acu-Link.com,2013-02-28 22:55:00,
2013-02-28 16:10:00,61.0,13.0,30.09,NNE,22,3.7,-999.0,15,-99.99,,,0.00,Acu-Link.com,2013-02-28 23:10:00,
2013-02-28 16:25:00,60.1,10.8,30.08,West,270,2.7,-999.0,14,-99.99,,,0.00,Acu-Link.com,2013-02-28 23:25:00,
2013-02-28 16:40:00,61.9,12.2,30.08,West,270,7.3,-999.0,14,-99.99,,,0.00,Acu-Link.com,2013-02-28 23:40:00,
2013-02-28 16:55:00,61.7,10.4,30.07,WNW,292,2.7,-999.0,13,-99.99,,,0.00,Acu-Link.com,2013-02-28 23:55:00,
2013-02-28 17:10:00,63.7,12.0,30.07,NW,315,3.7,-999.0,13,-99.99,,,0.00,Acu-Link.com,2013-03-01 00:10:00,
2013-02-28 17:25:00,61.9,10.5,30.07,NNW,337,2.2,-999.0,13,-99.99,,,0.00,Acu-Link.com,2013-03-01 00:25:00,
2013-02-28 17:41:00,58.5,9.5,30.07,WNW,292,0.0,-999.0,14,-99.99,,,0.00,Acu-Link.com,2013-03-01 00:41:00,
2013-02-28 17:56:00,55.2,8.4,30.06,NW,315,0.0,-999.0,15,-99.99,,,0.00,Acu-Link.com,2013-03-01 00:56:00,
2013-02-28 18:11:00,52.3,8.8,30.05,South,180,0.0,-999.0,17,-99.99,,,0.00,Acu-Link.com,2013-03-01 01:11:00,
2013-02-28 18:27:00,50.0,9.4,30.07,West,270,0.0,-999.0,19,-99.99,,,0.00,Acu-Link.com,2013-03-01 01:27:00,
2013-02-28 18:42:00,46.8,11.0,30.07,West,270,0.0,-999.0,23,-99.99,,,0.00,Acu-Link.com,2013-03-01 01:42:00,
2013-02-28 18:57:00,45.1,10.5,30.09,NNW,337,0.0,-999.0,24,-99.99,,,0.00,Acu-Link.com,2013-03-01 01:57:00,
2013-02-28 19:12:00,43.0,10.5,30.09,East,90,0.0,-999.0,26,-99.99,,,0.00,Acu-Link.com,2013-03-01 02:12:00,
2013-02-28 19:27:00,41.7,10.2,30.09,West,270,0.0,-999.0,27,-99.99,,,0.00,Acu-Link.com,2013-03-01 02:27:00,
2013-02-28 19:42:00,40.8,10.3,30.09,North,0,0.0,-999.0,28,-99.99,,,0.00,Acu-Link.com,2013-03-01 02:42:00,
2013-02-28 19:57:00,41.0,8.8,30.09,WNW,292,0.0,-999.0,26,-99.99,,,0.00,Acu-Link.com,2013-03-01 02:57:00,
2013-02-28 20:12:00,39.9,7.8,30.09,ESE,112,0.0,-999.0,26,-99.99,,,0.00,Acu-Link.com,2013-03-01 03:12:00,
2013-02-28 20:27:00,39.4,9.0,30.11,WNW,292,0.0,-999.0,28,-99.99,,,0.00,Acu-Link.com,2013-03-01 03:27:00,
2013-02-28 20:43:00,39.2,9.6,30.11,NNW,337,0.0,-999.0,29,-99.99,,,0.00,Acu-Link.com,2013-03-01 03:43:00,
2013-02-28 20:58:00,38.5,8.3,30.11,SW,225,1.7,-999.0,28,-99.99,,,0.00,Acu-Link.com,2013-03-01 03:58:00,
2013-02-28 21:13:00,37.4,9.6,30.11,SW,225,0.0,-999.0,31,-99.99,,,0.00,Acu-Link.com,2013-03-01 04:13:00,
2013-02-28 21:28:00,36.9,11.2,30.12,South,180,0.0,-999.0,34,-99.99,,,0.00,Acu-Link.com,2013-03-01 04:28:00,
2013-02-28 21:43:00,35.6,10.7,30.12,NW,315,0.0,-999.0,35,-99.99,,,0.00,Acu-Link.com,2013-03-01 04:43:00,
2013-02-28 21:58:00,35.1,10.9,30.12,NW,315,2.2,-999.0,36,-99.99,,,0.00,Acu-Link.com,2013-03-01 04:58:00,
2013-02-28 22:13:00,37.0,10.6,30.12,NE,45,0.0,-999.0,33,-99.99,,,0.00,Acu-Link.com,2013-03-01 05:13:00,
2013-02-28 22:28:00,35.8,10.2,30.13,WSW,247,0.0,-999.0,34,-99.99,,,0.00,Acu-Link.com,2013-03-01 05:28:00,
2013-02-28 22:43:00,36.3,10.0,30.13,North,0,0.0,-999.0,33,-99.99,,,0.00,Acu-Link.com,2013-03-01 05:43:00,
2013-02-28 22:58:00,35.2,9.0,30.13,West,270,0.0,-999.0,33,-99.99,,,0.00,Acu-Link.com,2013-03-01 05:58:00,
2013-02-28 23:14:00,34.2,10.7,30.13,East,90,0.0,-999.0,37,-99.99,,,0.00,Acu-Link.com,2013-03-01 06:14:00,
2013-02-28 23:29:00,33.3,10.5,30.13,West,270,0.0,-999.0,38,-99.99,,,0.00,Acu-Link.com,2013-03-01 06:29:00,
2013-02-28 23:44:00,32.4,10.2,30.13,SW,225,0.0,-999.0,39,-99.99,,,0.00,Acu-Link.com,2013-03-01 06:44:00,
2013-02-28 23:59:00,32.2,11.7,30.13,NE,45,0.0,-999.0,42,-99.99,,,0.00,Acu-Link.com,2013-03-01 06:59:00,